Weather in Bolshoy Kamagan

Russia / Kurgan Oblast     55°55′19″N   65°05′15″E
temp.,
°C
wind,
m/s
gust,
m/s
humid.,
%
clouds,
%
prec.,
mm/h
press.,
hPa
HPBL,
m
6 may, thu
thu623:00+19w8134262 0.0 996500
02:00+12wnw91465100 0.0 999900
05:00+9w813652 0.0 1002925
08:00+10wnw912605 0.0 10051087
11:00+12wnw1012418 0.0 10071959
14:00+13wnw10134087 0.0 10092129
17:00+13wnw8123761 0.0 10112254
20:00+10wnw6114315 0.0 1013549
7 may, fri
fri723:00+7w37540 0.0 1015160
02:00+5w410600 0.0 1017223
05:00+4w410690 0.0 1019198
08:00+9wnw58520 0.0 1021527
11:00+14w5738100 0.0 10211193
14:00+18w563293 0.0 10211504
17:00+18w56335 0.0 10201519
20:00+15wsw22485 0.0 102014
8 may, sat
sat823:00+12sw33535 0.0 102125
02:00+10sw335473 0.0 102125
05:00+9sw225898 0.0 102111
08:00+14s1246100 0.0 1021159
11:00+19sse2233100 0.0 10201441
14:00+20se323083 0.0 10192106
17:00+20se2228100 0.0 10182041
20:00+17nne2237100 0.0 101712
9 may, sun
sun923:00+14ne3340100 0.0 101742
02:00+13ene3346100 0.0 101640
05:00+12ne3651100 0.0 1016102
08:00+15ne4648100 0.0 1016234
11:00+19ene4537100 0.0 1016843
14:00+21ene5731100 0.0 10152734
17:00+19nne684095 0.0 10161331
20:00+16ne5105198 0.0 1016337
10 may, mon
mon1023:00+13nne4107257 0.0 1017287
02:00+13ne48695 0.0 1017163
05:00+11ne498040 0.0 1019269
08:00+14ene61066100 0.0 1020779
11:00+17ene576096 0.0 10211220
14:00+19ese574747 0.0 10221708
17:00+19ssw115144 0.0 1022185
20:00+17nw33555 0.0 102325